EST,Max TemperatureF,Mean TemperatureF,Min TemperatureF,Max Dew PointF,MeanDew PointF,Min DewpointF,Max Humidity, Mean Humidity, Min Humidity, Max Sea Level PressureIn, Mean Sea Level PressureIn, Min Sea Level PressureIn, Max VisibilityMiles, Mean VisibilityMiles, Min VisibilityMiles, Max Wind SpeedMPH, Mean Wind SpeedMPH, Max Gust SpeedMPH,PrecipitationIn, CloudCover, Events, WindDirDegrees
2013-12-1,41,36,30,28,25,17,85,72,55,30.37,30.18,30.03,10,10,10,9,6,,0.00,5,,94
2013-12-2,41,34,26,30,28,22,89,79,62,30.03,29.96,29.91,10,9,5,5,1,,0.00,6,,174
2013-12-3,42,33,24,31,25,19,93,80,60,30.00,29.94,29.89,10,5,0,10,1,,0.00,6,Fog,276
2013-12-4,42,32,23,27,23,19,88,76,40,30.18,30.11,29.99,10,7,2,6,2,,0.00,2,,282
2013-12-5,55,44,33,52,42,28,94,79,65,30.15,30.02,29.89,10,9,6,14,7,26,0.03,8,Rain,94
2013-12-6,54,43,32,52,36,28,94,84,67,30.17,30.03,29.87,10,8,1,13,6,24,0.24,8,Rain-Snow,272
2013-12-7,33,30,27,28,22,15,93,71,48,30.48,30.26,30.12,10,8,2,16,5,22,0.02,7,Snow,273
2013-12-8,28,26,24,18,12,7,71,56,43,30.59,30.51,30.44,10,10,10,12,6,20,0.00,5,,267
2013-12-9,36,30,24,29,22,14,89,74,63,30.42,30.14,29.89,10,8,2,20,10,32,0.01,8,Snow,93
2013-12-10,35,28,21,27,20,12,96,72,50,30.00,29.88,29.82,10,6,0,13,8,24,0.09,6,Fog-Snow,277
2013-12-11,28,24,21,21,14,5,93,67,49,30.22,30.13,30.02,10,7,0,23,13,37,0.02,6,Fog-Snow,271
2013-12-12,21,14,8,16,5,-3,86,61,38,30.31,30.19,30.04,10,8,0,14,8,24,0.00,5,Fog-Snow,274
2013-12-13,25,18,10,19,11,-1,86,67,52,30.41,30.08,29.98,10,6,0,16,10,24,0.01,7,Fog-Snow,271
2013-12-14,18,12,8,15,4,-3,88,70,59,30.58,30.37,30.05,10,4,0,30,10,37,0.04,7,Fog-Snow,101
2013-12-15,28,22,17,25,19,15,93,81,63,29.99,29.66,29.50,10,4,0,31,19,45,0.16,8,Fog-Snow,130
2013-12-16,25,18,9,21,10,1,86,65,48,30.22,29.93,29.71,10,8,1,17,10,30,0.00,4,Snow,271
2013-12-17,19,6,-8,13,8,-13,86,80,73,30.26,30.07,29.99,10,3,0,17,6,23,0.07,7,Fog-Snow,94
2013-12-18,28,18,8,20,14,4,92,78,61,30.06,29.99,29.94,10,8,2,18,3,24,0.00,7,Snow,272
2013-12-19,39,29,19,26,20,15,81,63,45,30.09,30.05,29.97,10,10,10,10,6,,0.00,5,,273
2013-12-20,42,35,28,36,30,24,97,82,60,30.10,29.99,29.93,10,8,3,9,3,,0.04,7,Rain,126
2013-12-21,50,42,35,45,39,34,100,96,68,29.96,29.89,29.85,10,3,0,9,1,,0.14,7,Fog-Rain,99
2013-12-22,66,56,46,57,52,46,100,84,54,29.91,29.80,29.71,10,8,1,21,6,34,0.17,6,Rain,240
2013-12-23,52,43,33,49,41,24,100,90,67,30.16,30.01,29.92,10,7,2,16,4,24,0.27,8,Rain,267
2013-12-24,33,25,17,23,14,6,69,60,49,30.30,30.18,30.11,10,10,10,13,8,21,0.00,4,,285
2013-12-25,21,14,9,7,2,-1,64,55,46,30.54,30.46,30.32,10,10,10,18,9,28,0.00,2,,294
2013-12-26,30,26,21,25,19,5,86,72,48,30.42,30.21,30.07,10,6,1,16,8,23,0.00,7,Snow,72
2013-12-27,32,29,26,21,17,13,69,62,47,30.28,30.24,30.21,10,10,10,17,9,30,0.00,7,,268
2013-12-28,43,30,18,27,22,16,92,76,45,30.19,30.10,30.03,10,9,7,13,2,17,0.00,3,,270
2013-12-29,42,33,24,36,31,22,100,93,58,30.03,29.70,29.54,10,5,1,10,2,,0.86,6,Rain-Snow,245
2013-12-30,37,24,10,34,17,2,100,70,54,30.21,29.96,29.65,10,10,4,22,7,29,0.00,4,Rain,275
2013-12-31,21,15,9,18,9,1,88,72,54,30.20,30.09,29.98,10,7,0,16,4,32,0.01,4,Fog-Snow,275